Dewpoint
47 48 48 47 46 45 43 42 42 41 41 42 42 43 44 45 45 46 46 45 45 46 47 47 47 48 48 49 48 49 49 49 50 50 50 50 50 50 49 49 49 49
45 44 44 45 44 44 43 43 43 43 43 43 43 44 44 45 46 46 46 46 46 47 47 47 47 47 47 48 48 48 48 48 48 49 48 48 49 48 48 48 48 49
43 43 43 42 42 41 41 42 42 41 41 41 41 42 43 43 44 44 44 44 45 45 46 46 46 46 46 46 46 47 46 47 47 47 47 47 48 47 48 48 47 47
42 42 42 41 41 39 39 39 38 38 38 39 39 40 41 41 41 41 42 42 43 43 43 43 44 43 43 43 43 43 44 45 45 45 45 45 46 46 46 46 46 46
40 40 40 40 40 40 39 38 39 39 38 40 39 38 38 38 39 39 40 40 41 41 41 41 41 41 41 40 40 40 41 41 41 41 42 42 42 43 43 43 43 44
38 38 38 38 38 38 38 38 37 37 37 36 37 38 37 37 37 38 39 39 39 39 39 38 38 38 38 38 38 38 39 40 40 40 39 39 40 40 41 40 40 40
36 36 36 36 36 35 35 35 35 35 35 36 36 35 36 36 37 38 38 39 38 37 36 36 36 36 37 37 37 37 37 38 38 38 38 38 38 38 39 39 38 38
34 35 35 34 34 34 33 34 34 34 34 35 34 35 35 36 37 37 37 36 35 35 35 35 36 36 36 36 36 36 36 37 37 36 36 36 37 37 37 38 37 37
33 33 33 33 33 33 33 33 33 34 34 34 34 35 35 36 36 36 35 34 34 35 34 34 35 35 35 35 35 35 35 35 36 35 35 35 35 36 36 36 36 35
31 31 31 31 31 32 32 32 33 33 34 34 34 34 34 35 35 34 34 33 34 34 34 34 34 34 34 34 34 34 34 34 34 35 35 35 35 35 35 35 35 34
29 29 29 30 30 30 31 32 32 32 33 33 33 33 34 34 33 33 33 33 34 33 33 33 33 33 33 33 34 34 34 34 34 34 34 34 34 34 35 34 34 33
27 28 28 28 29 29 30 30 31 31 31 32 32 33 33 33 32 32 32 32 32 32 32 32 32 32 32 33 33 33 33 34 34 33 33 33 33 33 33 34 33 33
25 26 27 27 28 28 29 29 30 30 31 31 31 31 31 31 31 31 31 32 32 32 32 32 32 32 32 32 32 32 32 33 33 33 32 32 32 32 33 32 32 32
24 25 26 26 27 27 28 28 29 29 29 30 30 30 31 31 31 31 31 31 32 32 32 31 31 31 32 32 32 32 32 32 32 32 31 31 31 32 32 32 31 31
24 24 24 25 25 26 26 27 27 27 28 29 30 30 31 30 30 30 30 30 30 30 30 30 30 31 32 31 31 31 31 31 31 31 31 31 30 30 31 32 31 31
23 23 23 24 24 24 24 25 25 26 27 27 28 29 29 30 29 29 29 29 29 29 29 29 29 30 32 33 34 32 31 31 31 31 30 30 29 29 29 30 32 32
20 21 21 22 22 23 23 24 24 25 25 26 27 28 28 29 29 28 28 28 28 28 27 28 28 29 32 33 34 34 31 30 30 29 29 28 28 28 28 28 30 31
17 18 18 19 20 21 21 22 22 23 24 25 25 26 27 28 27 27 27 27 27 27 26 27 27 30 31 32 32 33 33 30 29 28 28 27 28 28 27 27 27 28
13 13 14 15 16 18 19 20 20 21 22 23 24 25 25 26 26 26 26 26 26 25 25 25 26 29 30 30 30 31 31 29 28 27 27 27 27 27 26 26 26 26
10 11 10 11 12 13 15 17 18 19 21 21 22 23 23 24 24 25 25 25 25 24 24 25 25 28 29 29 29 29 28 29 27 27 27 26 25 25 25 25 25 25
9 10 9 9 9 10 11 12 15 17 18 19 20 20 21 22 23 24 24 24 24 24 24 25 25 27 27 29 29 28 27 29 25 25 25 25 24 24 24 24 22 23
8 8 9 9 9 9 9 10 11 14 16 18 19 19 20 21 22 23 24 23 23 23 24 23 23 26 27 27 28 27 27 25 24 24 23 23 23 23 24 23 22 22
7 8 8 8 8 8 9 9 10 11 13 15 16 18 19 20 21 22 23 23 23 23 22 21 22 25 26 27 27 27 27 23 23 23 23 23 22 22 23 24 23 22
6 7 8 8 8 8 8 9 10 11 12 13 15 16 17 19 20 21 21 22 22 21 20 20 21 24 25 26 26 26 25 22 22 21 20 21 21 21 22 23 25 25
5 6 7 7 7 8 8 9 10 11 12 13 14 15 17 18 19 19 19 20 21 20 20 18 20 23 25 25 25 25 23 20 20 20 19 19 20 20 21 22 24 25
3 5 6 7 7 8 8 9 10 12 12 13 13 15 16 17 18 18 17 18 18 18 18 17 18 20 23 25 25 25 23 20 20 19 18 18 19 20 20 20 21 22